Flag for Austria Weather past 2 weeks in St. Pölten, Lower Austria, Austria

Now
72 °F

Partly sunny.


Feels Like: 77 °F
Forecast: 57 / 74 °F
Wind: 8 mph from North

Location: Tulln Airport

Current Time: Sep 2, 2015 at 1:41:34 PM

Latest Report: Sep 2, 2015 at 12:50 PM


Visibility: 19 mi

Pressure: 30.01 "Hg

Humidity: 53%

Dew point: 54 °F

Location of St. PöltenLocation

Historic Weather in St. Pölten — Graph

°F

St. Pölten temperature yesterday

Maximum temperature yesterday: 93 °F (at 12:50 PM)
Minimum temperature yesterday: 61 °F (at 6:50 AM)
Average temperature yesterday: 84 °F

Past Weeks' High & Low Weather Summary

 TemperatureHumidityPressure
High97 °F (Aug 30, 2:50 PM)100% (Aug 19, 5:50 AM)30.24 "Hg (Aug 19, 5:50 AM)
Low48 °F (Aug 26, 6:50 AM)16% (Aug 31, 2:50 PM)29.71 "Hg (Sep 1, 5:50 PM)
Average72 °F63%30.03 "Hg
* Reported Aug 18 11:50 AM — Sep 2 11:50 AM, St. Pölten, Weather by CustomWeather, © 2015

Note: Actual official high and low records may vary slightly from our data, if they occured in-between our weather recording intervals... More about our weather records

Advertising

St. Pölten weather history for previous 24 hours

 ConditionsComfort  
Time TempWeatherWind HumidityBarometerVisibility
11:50 AM
Wed, Sep 2
72 °FBroken clouds.9 mph57%30.04 "Hg19 mi
11:20 AM72 °FBroken clouds.12 mph57%30.04 "Hg19 mi
10:50 AM72 °FPartly sunny.13 mph57%30.04 "Hg19 mi
9:50 AM66 °FBroken clouds.12 mph78%30.04 "Hg16 mi
8:50 AM63 °FPartly sunny.7 mph88%30.01 "Hg16 mi
7:50 AM61 °FLight rain. Partly sunny.9 mph94%30.01 "Hg9 mi
7:20 AM64 °FSprinkles. Partly sunny.13 mph88%29.98 "Hg6 mi
6:50 AM66 °FPartly cloudy.13 mph88%29.95 "Hg9 mi
5:50 AM68 °FPassing clouds.16 mph78%29.92 "Hg16 mi
10:50 PM
Tue, Sep 1
79 °FPassing clouds.23 mph48%29.77 "Hg12 mi
9:50 PM84 °FPassing clouds.7 mph43%29.71 "Hg12 mi
9:20 PM81 °FPassing clouds.7 mph48%29.71 "Hg12 mi
8:50 PM79 °FPassing clouds.8 mph54%29.71 "Hg25 mi
7:50 PM82 °FPassing clouds.6 mph45%29.71 "Hg25 mi
6:50 PM88 °FPassing clouds.7 mph38%29.71 "Hg25 mi
5:50 PM90 °FPassing clouds.14 mph36%29.71 "Hg25 mi
4:50 PM93 °FPassing clouds.13 mph30%29.74 "Hg25 mi
3:50 PM93 °FPassing clouds.13 mph30%29.74 "Hg25 mi
2:50 PM93 °FPassing clouds.10 mph30%29.77 "Hg31 mi
2:20 PM93 °FPassing clouds.12 mph32%29.77 "Hg31 mi
1:50 PM93 °FPassing clouds.9 mph34%29.77 "Hg31 mi
Weather by CustomWeather, © 2015

See weather overviewHow to use our weather pages